Flag for U.S.A. Weather past 2 weeks in Spokane, Washington, U.S.A.

Now
63 °F

Mostly cloudy.


Feels Like: 63 °F
Forecast: 60 / 80 °F
Wind: 10 mph from East

Location: Felts Field

Current Time: Jul 22, 2014 at 12:42:08 PM

Latest Report: Jul 22, 2014 at 9:53 AM


Visibility: 10 mi

Pressure: 30.13 "Hg

Humidity: 77%

Dew point: 55 °F

Location of SpokaneLocation

Historic Weather in Spokane — Graph

°F

Spokane temperature yesterday

Maximum temperature yesterday: 79 °F (at 4:53 PM)
Minimum temperature yesterday: 58 °F (at 5:53 AM)
Average temperature yesterday: 69 °F

Past Weeks' High & Low Weather Summary

 TemperatureHumidityPressure
High100 °F (Jul 16, 3:53 PM)90% (Jul 22, 7:53 AM)30.13 "Hg (Jul 22, 7:53 AM)
Low58 °F (Jul 11, 4:53 AM)9% (Jul 9, 5:53 PM)29.67 "Hg (Jul 17, 7:53 PM)
Average77 °F41%29.89 "Hg
* Reported Jul 7 9:53 AM — Jul 22 9:53 AM, Spokane, Weather by CustomWeather, © 2014

Note: Actual official high and low records may vary slightly from our data, if they occured in-between our weather recording intervals... More about our weather records

Advertising

Spokane weather history for previous 24 hours

 ConditionsComfort  
Time TempWeatherWind HumidityBarometerVisibility
9:53 AM
Jul 22
63 °FMostly cloudy.10 mph77%30.13 "Hg10 mi
8:53 AM62 °FLight rain. Mostly cloudy.8 mph83%30.09 "Hg7 mi
7:53 AM61 °FOvercast.5 mph90%30.07 "Hg7 mi
6:53 AM64 °FRain. Mostly cloudy.No wind68%30.05 "Hg4 mi
5:53 AM64 °FOvercast.No wind65%30.01 "Hg10 mi
4:53 AM62 °FPassing clouds.No wind67%29.98 "Hg10 mi
3:53 AM64 °FPassing clouds.3 mph61%29.98 "Hg10 mi
2:53 AM65 °FPassing clouds.3 mph59%29.99 "Hg10 mi
1:53 AM67 °FPassing clouds.No wind53%29.99 "Hg10 mi
12:53 AM68 °FClear.3 mph49%29.98 "Hg10 mi
11:53 PM
Jul 21
67 °FClear.No wind51%29.97 "Hg10 mi
10:53 PM69 °FClear.5 mph44%29.97 "Hg10 mi
9:53 PM69 °FClear.3 mph42%29.96 "Hg10 mi
8:53 PM72 °FSunny.3 mph38%29.96 "Hg10 mi
7:53 PM74 °FSunny.3 mph32%29.96 "Hg10 mi
6:53 PM78 °FSunny.3 mph25%29.95 "Hg8 mi
5:53 PM78 °FSunny.No wind29%29.94 "Hg8 mi
4:53 PM79 °FSunny.7 mph29%29.95 "Hg10 mi
3:53 PM78 °FSunny.No wind28%29.96 "Hg10 mi
2:53 PM76 °FSunny.3 mph30%29.97 "Hg10 mi
1:53 PM74 °FSunny.3 mph33%29.97 "Hg10 mi
12:53 PM72 °FSunny.3 mph35%29.98 "Hg10 mi
Weather by CustomWeather, © 2014

See weather overviewHow to use our weather pages